Weather History for KPRN - October, 2012

Change the Weather History Date:

Monday, October 15, 2012

  Actual Average Record
Temperature  
Mean Temperature 70 °F -  
Max Temperature 80 °F 79 °F 91 °F (1990)
Min Temperature 57 °F 54 °F 34 °F (1977)
Cooling Degree Days 4    
Growing Degree Days 20 (Base 50)    
Moisture  
Dew Point 62 °F    
Average Humidity 77    
Maximum Humidity 100    
Minimum Humidity 40    
Precipitation  
Precipitation 0.07 in - - ()
Sea Level Pressure  
Sea Level Pressure 29.96 in    
Wind  
Wind Speed 6 mph (WNW)    
Max Wind Speed 14 mph    
Max Gust Speed 18 mph    
Visibility 9 miles    
Events Rain , Thunderstorm    
Averages and records for this station are not official NWS values.
T = Trace of Precipitation, MM = Missing Value Source: NWS Daily Summary

Daily Weather History Graph

Daily Weather History Graph

Search for Another Location

Airport or City:

Trip Planner

Search our weather history database for the weather conditions in past years. The results will help you decide how hot, cold, wet, or windy it might be!

Date:

Astronomy

Oct. 15, 2012 Rise Set
Actual Time 6:50 AM CDT 6:13 PM CDT
Civil Twilight 6:25 AM CDT 6:38 PM CDT
Nautical Twilight 5:57 AM CDT 7:06 PM CDT
Astronomical Twilight 5:28 AM CDT 7:34 PM CDT
Moon 6:56 AM CDT (10/15) 6:17 PM CDT (10/15)
Length of Visible Light 12h 12m
Length of Day
11h 23m
New Moon, 0% of the Moon is Illuminated
Oct 15
New Moon
Oct 21
First Quarter
Oct 29
Full
Nov 6
Last Quarter
Nov 13
New

Hourly Weather History & Observations

Time (CDT) Temp. Heat Index Dew Point Humidity Pressure Visibility Wind Dir Wind Speed Gust Speed Precip Events Conditions
12:56 AM 70.0 °F - 68.0 °F 93% 29.97 in 6.0 mi SSW 5.8 mph - N/A   Clear
1:06 AM 69.8 °F - 68.0 °F 94% 29.99 in 6.0 mi SSW 4.6 mph - N/A   Scattered Clouds
1:18 AM 69.8 °F - 68.0 °F 94% 29.99 in 5.0 mi Variable 4.6 mph - N/A   Mostly Cloudy
1:56 AM 70.0 °F - 69.1 °F 97% 29.96 in 5.0 mi South 3.5 mph - N/A   Overcast
2:56 AM 70.0 °F - 68.0 °F 93% 29.96 in 5.0 mi SSW 5.8 mph - N/A   Overcast
3:56 AM 70.0 °F - 69.1 °F 97% 29.94 in 6.0 mi Variable 5.8 mph - N/A   Overcast
4:56 AM 70.0 °F - 69.1 °F 97% 29.94 in 5.0 mi SW 5.8 mph - 0.01 in Rain Light Rain
5:17 AM 69.8 °F - 69.8 °F 100% 29.96 in 5.0 mi SSW 5.8 mph - 0.04 in Rain Light Rain
5:56 AM 70.0 °F - 68.0 °F 93% 29.95 in 8.0 mi WSW 4.6 mph - 0.05 in Rain , Thunderstorm Light Thunderstorms and Rain
6:26 AM 69.8 °F - 68.0 °F 94% 29.96 in 9.0 mi SW 3.5 mph - 0.01 in Rain Light Rain
6:56 AM 69.1 °F - 66.9 °F 93% 29.96 in 10.0 mi WSW 3.5 mph - 0.01 in   Clear
7:31 AM 68.0 °F - 66.2 °F 94% 29.97 in 10.0 mi West 5.8 mph - N/A   Mostly Cloudy
7:38 AM 68.0 °F - 66.2 °F 94% 29.98 in 10.0 mi West 4.6 mph - N/A   Scattered Clouds
7:47 AM 68.0 °F - 66.2 °F 94% 29.98 in 10.0 mi West 4.6 mph - N/A   Mostly Cloudy
7:56 AM 68.0 °F - 66.0 °F 93% 29.97 in 10.0 mi West 3.5 mph - N/A   Mostly Cloudy
8:06 AM 69.8 °F - 66.2 °F 88% 29.98 in 10.0 mi West 3.5 mph - N/A   Overcast
8:27 AM 69.8 °F - 66.2 °F 88% 29.98 in 9.0 mi West 3.5 mph - N/A   Overcast
8:56 AM 70.0 °F - 66.9 °F 90% 29.98 in 9.0 mi NW 8.1 mph - N/A   Overcast
9:27 AM 71.6 °F - 66.2 °F 83% 29.98 in 10.0 mi NW 6.9 mph - N/A   Overcast
9:56 AM 73.0 °F - 66.0 °F 79% 29.98 in 10.0 mi NW 6.9 mph - N/A   Mostly Cloudy
10:04 AM 73.4 °F - 66.2 °F 78% 29.99 in 10.0 mi Variable 5.8 mph - N/A   Scattered Clouds
10:56 AM 77.0 °F - 63.0 °F 62% 29.97 in 10.0 mi NNW 8.1 mph - N/A   Partly Cloudy
11:56 AM 78.1 °F - 61.0 °F 56% 29.96 in 10.0 mi NNW 9.2 mph - N/A   Scattered Clouds
12:56 PM 79.0 °F - 59.0 °F 50% 29.94 in 10.0 mi WNW 9.2 mph 18.4 mph N/A   Clear
1:56 PM 80.1 °F 80.2 °F 55.9 °F 43% 29.91 in 10.0 mi WNW 8.1 mph - N/A   Partly Cloudy
2:56 PM 80.1 °F 80.2 °F 55.9 °F 43% 29.90 in 10.0 mi NNW 9.2 mph - N/A   Clear
3:56 PM 79.0 °F - 53.1 °F 40% 29.90 in 10.0 mi WNW 9.2 mph - N/A   Clear
4:56 PM 79.0 °F - 53.1 °F 40% 29.90 in 10.0 mi NNW 13.8 mph 17.3 mph N/A   Partly Cloudy
5:56 PM 73.9 °F - 52.0 °F 46% 29.91 in 10.0 mi NNW 5.8 mph - N/A   Clear
6:56 PM 70.0 °F - 52.0 °F 53% 29.92 in 10.0 mi NNW 5.8 mph - N/A   Clear
7:56 PM 66.9 °F - 52.0 °F 59% 29.93 in 10.0 mi NNW 5.8 mph - N/A   Clear
8:56 PM 64.9 °F - 52.0 °F 63% 29.94 in 10.0 mi NNW 3.5 mph - N/A   Clear
9:56 PM 62.1 °F - 52.0 °F 70% 29.96 in 10.0 mi NNW 3.5 mph - N/A   Clear
10:56 PM 59.0 °F - 51.1 °F 75% 29.96 in 10.0 mi NNW 5.8 mph - N/A   Clear
11:56 PM 57.9 °F - 50.0 °F 75% 29.97 in 10.0 mi NNW 3.5 mph - N/A   Clear